Location: Casilda
(33.0440°S, 61.1680°W)
Time: 00:14:13
(UTC-03:00)

ISS - Pass Details

Date: 18 February 2020
Orbit: 415 x 423 km, 51.6° (Epoch: 27 February)

Event Time Altitude Azimuth Distance (km) Brightness Sun altitude
Rises 20:26:52 0° 292° (WNW) 2,368 0.9 -7.6°
Reaches altitude 10° 20:29:07 10° 281° (W) 1,508 0.1 -8.0°
Maximum altitude 20:32:08 29° 218° (SW) 804 -1.6 -8.6°
Drops below altitude 10° 20:35:11 10° 155° (SSE) 1,518 -1.0 -9.2°
Sets 20:37:28 0° 143° (SE) 2,387 -0.1 -9.7°
